Location: George Washington National Forest Helicopter Landing Site
(38.6463°N, 79.0851°W)
Time: 15:00:58
(UTC-04:00)

Tiros 1 despin weight - Pass Details

Date: 19 August 2019
Orbit: 594 x 643 km, 48.2° (Epoch: 17 October)

Event Time Altitude Azimuth Distance (km) Brightness Sun altitude
Rises 00:16:51 0° 194° (SSW) 2,814 - -36.4°
Reaches altitude 10° 00:19:43 10° 175° (S) 1,923 - -36.6°
Maximum altitude 00:22:41 18° 132° (SE) 1,491 - -36.8°
Drops below altitude 10° 00:25:41 10° 90° (E) 1,947 - -36.9°
Sets 00:28:36 0° 71° (ENE) 2,865 - -37.1°
